Time,TemperatureF,DewpointF,PressureIn,WindDirection,WindDirectionDegrees,WindSpeedMPH,WindSpeedGustMPH,Humidity,HourlyPrecipIn,Conditions,Clouds,dailyrainin,SoftwareType,DateUTC
2013-02-18 00:02:00,15.0,3.0,-100.00,SW,220,4.0,17.0,57,0.00,,,-99.99,,2013-02-18 05:02:00,
2013-02-18 00:11:00,15.0,2.0,-100.00,West,265,7.0,21.0,56,0.00,,,-99.99,,2013-02-18 05:11:00,
2013-02-18 00:21:00,15.0,3.0,-100.00,SW,235,5.0,21.0,56,0.00,,,-99.99,,2013-02-18 05:21:00,
2013-02-18 00:32:00,15.0,2.0,-100.00,East,80,6.0,13.0,57,0.00,,,-99.99,,2013-02-18 05:32:00,
2013-02-18 00:42:00,15.0,3.0,-100.00,West,265,4.0,15.0,58,0.00,,,-99.99,,2013-02-18 05:42:00,
2013-02-18 00:52:00,15.0,3.0,-100.00,North,-999,-999.0,-999.0,57,0.00,,,-99.99,,2013-02-18 05:52:00,
2013-02-18 01:02:00,15.0,3.0,-100.00,WSW,245,4.0,17.0,58,0.00,,,-99.99,,2013-02-18 06:02:00,
2013-02-18 01:11:00,15.0,3.0,-100.00,WSW,255,9.0,20.0,58,0.00,,,-99.99,,2013-02-18 06:11:00,
2013-02-18 01:21:00,15.0,3.0,-100.00,WNW,285,6.0,19.0,58,0.00,,,-99.99,,2013-02-18 06:21:00,
2013-02-18 01:32:00,15.0,2.0,-100.00,North,-999,-999.0,-999.0,57,-99.99,,,-99.99,,2013-02-18 06:32:00,
2013-02-18 01:42:00,15.0,2.0,-100.00,WNW,285,7.0,18.0,57,0.00,,,-99.99,,2013-02-18 06:42:00,
2013-02-18 01:51:00,15.0,2.0,-100.00,West,265,6.0,15.0,57,0.00,,,-99.99,,2013-02-18 06:51:00,
2013-02-18 02:02:00,15.0,2.0,-100.00,WNW,290,7.0,27.0,56,0.00,,,-99.99,,2013-02-18 07:02:00,
2013-02-18 02:11:00,15.0,2.0,-100.00,West,265,4.0,16.0,57,0.00,,,-99.99,,2013-02-18 07:11:00,
2013-02-18 02:22:00,14.0,2.0,-100.00,WSW,255,6.0,17.0,57,0.00,,,-99.99,,2013-02-18 07:22:00,
2013-02-18 02:32:00,14.0,2.0,-100.00,WSW,240,8.0,16.0,57,0.00,,,-99.99,,2013-02-18 07:32:00,
2013-02-18 02:42:00,14.0,2.0,-100.00,WSW,245,8.0,19.0,56,0.00,,,-99.99,,2013-02-18 07:42:00,
2013-02-18 02:51:00,14.0,2.0,-100.00,WNW,285,9.0,18.0,56,0.00,,,-99.99,,2013-02-18 07:51:00,
2013-02-18 03:01:00,14.0,1.0,-100.00,West,270,7.0,18.0,56,0.00,,,-99.99,,2013-02-18 08:01:00,
2013-02-18 03:11:00,14.0,1.0,-100.00,West,280,7.0,19.0,56,0.00,,,-99.99,,2013-02-18 08:11:00,
2013-02-18 03:21:00,14.0,1.0,-100.00,WNW,290,6.0,20.0,56,0.00,,,-99.99,,2013-02-18 08:21:00,
2013-02-18 03:32:00,14.0,1.0,-100.00,WNW,285,7.0,21.0,56,0.00,,,-99.99,,2013-02-18 08:32:00,
2013-02-18 03:42:00,14.0,1.0,-100.00,West,270,6.0,22.0,56,0.00,,,-99.99,,2013-02-18 08:42:00,
2013-02-18 03:52:00,14.0,2.0,-100.00,West,270,4.0,16.0,57,0.00,,,-99.99,,2013-02-18 08:52:00,
2013-02-18 04:03:00,14.0,1.0,-100.00,WNW,285,7.0,19.0,56,0.00,,,-99.99,,2013-02-18 09:03:00,
2013-02-18 04:11:00,14.0,2.0,-100.00,West,280,4.0,25.0,57,0.00,,,-99.99,,2013-02-18 09:11:00,
2013-02-18 04:22:00,14.0,1.0,-100.00,West,280,7.0,17.0,57,0.00,,,-99.99,,2013-02-18 09:22:00,
2013-02-18 04:32:00,13.0,1.0,-100.00,West,270,9.0,24.0,57,0.00,,,-99.99,,2013-02-18 09:32:00,
2013-02-18 04:42:00,13.0,2.0,-100.00,West,270,5.0,24.0,58,0.00,,,-99.99,,2013-02-18 09:42:00,
2013-02-18 04:51:00,13.0,1.0,-100.00,WSW,255,7.0,18.0,58,0.00,,,-99.99,,2013-02-18 09:51:00,
2013-02-18 05:01:00,13.0,2.0,-100.00,SSW,205,4.0,24.0,58,0.00,,,-99.99,,2013-02-18 10:01:00,
2013-02-18 05:11:00,13.0,1.0,-100.00,WSW,245,7.0,19.0,58,0.00,,,-99.99,,2013-02-18 10:11:00,
2013-02-18 05:21:00,13.0,2.0,-100.00,WSW,250,6.0,19.0,59,0.00,,,-99.99,,2013-02-18 10:21:00,
2013-02-18 05:32:00,13.0,2.0,-100.00,WSW,245,7.0,19.0,58,0.00,,,-99.99,,2013-02-18 10:32:00,
2013-02-18 05:42:00,13.0,1.0,-100.00,West,265,6.0,18.0,58,0.00,,,-99.99,,2013-02-18 10:42:00,
2013-02-18 05:52:00,13.0,2.0,-100.00,West,265,4.0,20.0,58,0.00,,,-99.99,,2013-02-18 10:52:00,
2013-02-18 06:02:00,13.0,1.0,-100.00,North,-999,-999.0,-999.0,58,-99.99,,,-99.99,,2013-02-18 11:02:00,
2013-02-18 06:11:00,13.0,1.0,-100.00,West,270,7.0,18.0,57,0.00,,,-99.99,,2013-02-18 11:11:00,
2013-02-18 06:22:00,13.0,1.0,-100.00,WNW,295,6.0,21.0,57,0.00,,,-99.99,,2013-02-18 11:22:00,
2013-02-18 06:32:00,13.0,1.0,-100.00,WSW,255,9.0,19.0,57,0.00,,,-99.99,,2013-02-18 11:32:00,
2013-02-18 06:42:00,13.0,1.0,-100.00,WSW,240,6.0,19.0,58,0.00,,,-99.99,,2013-02-18 11:42:00,
2013-02-18 06:52:00,13.0,1.0,-100.00,WSW,250,7.0,18.0,57,0.00,,,-99.99,,2013-02-18 11:52:00,
2013-02-18 07:02:00,13.0,1.0,-100.00,WNW,285,7.0,16.0,57,0.00,,,-99.99,,2013-02-18 12:02:00,
2013-02-18 07:11:00,13.0,0.0,-100.00,WSW,250,7.0,19.0,56,0.00,,,-99.99,,2013-02-18 12:11:00,
2013-02-18 07:22:00,13.0,0.0,-100.00,WNW,290,8.0,20.0,55,0.00,,,-99.99,,2013-02-18 12:22:00,
2013-02-18 07:32:00,13.0,0.0,-100.00,North,-999,-999.0,-999.0,55,0.00,,,-99.99,,2013-02-18 12:32:00,
2013-02-18 07:42:00,13.0,0.0,-100.00,SSW,205,7.0,18.0,55,0.00,,,-99.99,,2013-02-18 12:42:00,
2013-02-18 07:52:00,14.0,0.0,-100.00,West,280,8.0,24.0,53,0.00,,,-99.99,,2013-02-18 12:52:00,
2013-02-18 08:03:00,14.0,0.0,-100.00,WNW,295,11.0,23.0,52,0.00,,,-99.99,,2013-02-18 13:03:00,
2013-02-18 08:12:00,15.0,0.0,-100.00,West,265,6.0,17.0,51,0.00,,,-99.99,,2013-02-18 13:12:00,
2013-02-18 08:22:00,15.0,0.0,-100.00,West,260,4.0,14.0,51,0.00,,,-99.99,,2013-02-18 13:22:00,
2013-02-18 08:32:00,16.0,0.0,-100.00,NW,305,5.0,14.0,49,0.00,,,-99.99,,2013-02-18 13:32:00,
2013-02-18 08:42:00,16.0,0.0,-100.00,WNW,285,2.0,14.0,49,0.00,,,-99.99,,2013-02-18 13:42:00,
2013-02-18 08:53:00,16.0,0.0,-100.00,West,275,9.0,21.0,48,0.00,,,-99.99,,2013-02-18 13:53:00,
2013-02-18 09:02:00,17.0,0.0,-100.00,West,280,11.0,26.0,47,0.00,,,-99.99,,2013-02-18 14:02:00,
2013-02-18 09:11:00,17.0,0.0,-100.00,West,275,9.0,19.0,46,0.00,,,-99.99,,2013-02-18 14:11:00,
2013-02-18 09:22:00,18.0,0.0,-100.00,West,275,9.0,22.0,45,0.00,,,-99.99,,2013-02-18 14:22:00,
2013-02-18 09:33:00,18.0,0.0,-100.00,North,-999,-999.0,-999.0,44,-99.99,,,-99.99,,2013-02-18 14:33:00,
2013-02-18 09:42:00,19.0,1.0,-100.00,West,265,6.0,20.0,44,0.00,,,-99.99,,2013-02-18 14:42:00,
2013-02-18 09:53:00,19.0,1.0,-100.00,WSW,255,11.0,26.0,43,0.00,,,-99.99,,2013-02-18 14:53:00,
2013-02-18 10:02:00,20.0,1.0,-100.00,West,260,6.0,17.0,42,0.00,,,-99.99,,2013-02-18 15:02:00,
2013-02-18 10:11:00,21.0,1.0,-100.00,North,-999,-999.0,-999.0,40,0.00,,,-99.99,,2013-02-18 15:11:00,
2013-02-18 10:22:00,21.0,0.0,-100.00,SSW,200,10.0,24.0,39,0.00,,,-99.99,,2013-02-18 15:22:00,
2013-02-18 10:32:00,21.0,0.0,-100.00,West,270,7.0,19.0,38,0.00,,,-99.99,,2013-02-18 15:32:00,
2013-02-18 10:42:00,22.0,0.0,-100.00,SW,215,7.0,20.0,37,0.00,,,-99.99,,2013-02-18 15:42:00,
2013-02-18 10:52:00,22.0,-1.0,-100.00,West,270,9.0,22.0,35,0.00,,,-99.99,,2013-02-18 15:52:00,
2013-02-18 11:03:00,24.0,0.0,-100.00,West,260,7.0,22.0,34,0.00,,,-99.99,,2013-02-18 16:03:00,
2013-02-18 11:12:00,24.0,-1.0,-100.00,WSW,250,9.0,27.0,32,0.00,,,-99.99,,2013-02-18 16:12:00,
2013-02-18 11:22:00,24.0,-3.0,-100.00,West,270,12.0,24.0,30,0.00,,,-99.99,,2013-02-18 16:22:00,
2013-02-18 11:32:00,25.0,-3.0,-100.00,North,-999,-999.0,-999.0,29,0.00,,,-99.99,,2013-02-18 16:32:00,
2013-02-18 11:42:00,25.0,-3.0,-100.00,WSW,250,7.0,22.0,28,0.00,,,-99.99,,2013-02-18 16:42:00,
2013-02-18 11:52:00,26.0,-5.0,-100.00,North,-999,-999.0,-999.0,25,-99.99,,,-99.99,,2013-02-18 16:52:00,
2013-02-18 12:04:00,26.0,-3.0,-100.00,WNW,290,6.0,24.0,26,0.00,,,-99.99,,2013-02-18 17:04:00,
2013-02-18 12:12:00,26.0,-6.0,-100.00,WNW,285,10.0,27.0,24,0.00,,,-99.99,,2013-02-18 17:12:00,
2013-02-18 12:22:00,26.0,-5.0,-100.00,West,270,9.0,27.0,24,0.00,,,-99.99,,2013-02-18 17:22:00,
2013-02-18 12:42:00,27.0,-4.0,-100.00,WNW,285,7.0,23.0,25,0.00,,,-99.99,,2013-02-18 17:42:00,
2013-02-18 12:52:00,27.0,-4.0,-100.00,WNW,285,7.0,23.0,25,0.00,,,-99.99,,2013-02-18 17:52:00,
2013-02-18 13:02:00,27.0,-4.0,-100.00,WNW,285,7.0,23.0,25,0.00,,,-99.99,,2013-02-18 18:02:00,
2013-02-18 13:12:00,27.0,-6.0,-100.00,West,260,11.0,31.0,22,0.00,,,-99.99,,2013-02-18 18:12:00,
2013-02-18 13:23:00,28.0,-5.0,-100.00,West,270,9.0,21.0,22,0.00,,,-99.99,,2013-02-18 18:23:00,
2013-02-18 13:33:00,30.0,-5.0,-100.00,West,265,7.0,20.0,21,0.00,,,-99.99,,2013-02-18 18:33:00,
2013-02-18 13:43:00,30.0,-3.0,-100.00,WSW,240,4.0,19.0,23,0.00,,,-99.99,,2013-02-18 18:43:00,
2013-02-18 13:52:00,29.0,-6.0,-100.00,West,270,10.0,27.0,20,0.00,,,-99.99,,2013-02-18 18:52:00,
2013-02-18 14:03:00,29.0,-6.0,-100.00,NW,325,5.0,25.0,20,0.00,,,-99.99,,2013-02-18 19:03:00,
2013-02-18 14:12:00,29.0,-6.0,-100.00,WSW,245,10.0,24.0,20,0.00,,,-99.99,,2013-02-18 19:12:00,
2013-02-18 14:22:00,29.0,-6.0,-100.00,West,270,8.0,24.0,20,0.00,,,-99.99,,2013-02-18 19:22:00,
2013-02-18 14:33:00,30.0,-6.0,-100.00,SW,220,6.0,23.0,20,0.00,,,-99.99,,2013-02-18 19:33:00,
2013-02-18 14:42:00,30.0,-5.0,-100.00,SW,225,4.0,17.0,20,0.00,,,-99.99,,2013-02-18 19:42:00,
2013-02-18 14:52:00,31.0,-6.0,-100.00,WSW,240,6.0,17.0,19,0.00,,,-99.99,,2013-02-18 19:52:00,
2013-02-18 15:02:00,31.0,-6.0,-100.00,SSW,205,5.0,14.0,19,0.00,,,-99.99,,2013-02-18 20:02:00,
2013-02-18 15:12:00,30.0,-6.0,-100.00,WSW,250,6.0,15.0,19,0.00,,,-99.99,,2013-02-18 20:12:00,
2013-02-18 15:23:00,31.0,-5.0,-100.00,WNW,285,4.0,15.0,20,0.00,,,-99.99,,2013-02-18 20:23:00,
2013-02-18 15:33:00,31.0,-5.0,-100.00,WSW,245,4.0,17.0,20,0.00,,,-99.99,,2013-02-18 20:33:00,
2013-02-18 15:42:00,31.0,-5.0,-100.00,WNW,295,7.0,14.0,20,0.00,,,-99.99,,2013-02-18 20:42:00,
2013-02-18 15:52:00,31.0,-5.0,-100.00,WNW,300,7.0,14.0,20,0.00,,,-99.99,,2013-02-18 20:52:00,
2013-02-18 16:03:00,31.0,-5.0,-100.00,WSW,240,4.0,16.0,20,0.00,,,-99.99,,2013-02-18 21:03:00,
2013-02-18 16:12:00,30.0,-5.0,-100.00,West,265,6.0,12.0,20,0.00,,,-99.99,,2013-02-18 21:12:00,
2013-02-18 16:22:00,30.0,-7.0,-100.00,West,260,7.0,17.0,19,0.00,,,-99.99,,2013-02-18 21:22:00,
2013-02-18 16:33:00,29.0,-6.0,-100.00,West,265,6.0,19.0,20,0.00,,,-99.99,,2013-02-18 21:33:00,
2013-02-18 16:42:00,29.0,-7.0,-100.00,West,275,6.0,15.0,20,0.00,,,-99.99,,2013-02-18 21:42:00,
2013-02-18 16:52:00,29.0,-5.0,-100.00,West,265,4.0,12.0,22,0.00,,,-99.99,,2013-02-18 21:52:00,
2013-02-18 17:03:00,29.0,-5.0,-100.00,West,265,4.0,12.0,22,0.00,,,-99.99,,2013-02-18 22:03:00,
2013-02-18 17:12:00,29.0,-7.0,-100.00,WSW,245,3.0,17.0,20,0.00,,,-99.99,,2013-02-18 22:12:00,
2013-02-18 17:22:00,28.0,-7.0,-100.00,West,260,6.0,17.0,20,0.00,,,-99.99,,2013-02-18 22:22:00,
2013-02-18 17:33:00,28.0,-7.0,-100.00,SW,235,4.0,14.0,21,0.00,,,-99.99,,2013-02-18 22:33:00,
2013-02-18 17:43:00,28.0,-6.0,-100.00,WNW,290,3.0,11.0,21,0.00,,,-99.99,,2013-02-18 22:43:00,
2013-02-18 18:02:00,27.0,-7.0,-100.00,WNW,295,3.0,11.0,21,0.00,,,-99.99,,2013-02-18 23:02:00,
2013-02-18 18:12:00,27.0,-7.0,-100.00,West,260,6.0,18.0,21,0.00,,,-99.99,,2013-02-18 23:12:00,
2013-02-18 18:23:00,27.0,-7.0,-100.00,SW,225,1.0,18.0,21,0.00,,,-99.99,,2013-02-18 23:23:00,
2013-02-18 18:33:00,27.0,-7.0,-100.00,WNW,295,2.0,14.0,21,0.00,,,-99.99,,2013-02-18 23:33:00,
2013-02-18 18:43:00,27.0,-7.0,-100.00,WNW,290,5.0,10.0,21,0.00,,,-99.99,,2013-02-18 23:43:00,
2013-02-18 18:52:00,27.0,-6.0,-100.00,SSW,195,2.0,7.0,23,0.00,,,-99.99,,2013-02-18 23:52:00,
2013-02-18 19:03:00,26.0,-6.0,-100.00,SW,235,2.0,9.0,23,0.00,,,-99.99,,2013-02-19 00:03:00,
2013-02-18 19:12:00,26.0,-7.0,-100.00,SSW,205,3.0,7.0,22,0.00,,,-99.99,,2013-02-19 00:12:00,
2013-02-18 19:22:00,26.0,-6.0,-100.00,WSW,245,2.0,7.0,23,0.00,,,-99.99,,2013-02-19 00:22:00,
2013-02-18 19:34:00,26.0,-7.0,-100.00,West,270,1.0,8.0,22,0.00,,,-99.99,,2013-02-19 00:34:00,
2013-02-18 19:43:00,26.0,-6.0,-100.00,North,350,1.0,3.0,23,0.00,,,-99.99,,2013-02-19 00:43:00,
2013-02-18 20:03:00,26.0,-6.0,-100.00,WNW,295,2.0,6.0,24,0.00,,,-99.99,,2013-02-19 01:03:00,
2013-02-18 20:14:00,26.0,-5.0,-100.00,SE,135,1.0,6.0,26,0.00,,,-99.99,,2013-02-19 01:14:00,
2013-02-18 20:34:00,25.0,-4.0,-100.00,SW,220,2.0,9.0,26,0.00,,,-99.99,,2013-02-19 01:34:00,
2013-02-18 20:43:00,25.0,-5.0,-100.00,SW,225,2.0,9.0,25,0.00,,,-99.99,,2013-02-19 01:43:00,
2013-02-18 20:54:00,25.0,-5.0,-100.00,West,265,2.0,5.0,26,0.00,,,-99.99,,2013-02-19 01:54:00,
2013-02-18 21:03:00,25.0,-6.0,-100.00,West,270,3.0,9.0,24,0.00,,,-99.99,,2013-02-19 02:03:00,
2013-02-18 21:14:00,24.0,-5.0,-100.00,WSW,250,2.0,4.0,26,0.00,,,-99.99,,2013-02-19 02:14:00,
2013-02-18 21:23:00,24.0,-4.0,-100.00,WSW,250,4.0,7.0,28,0.00,,,-99.99,,2013-02-19 02:23:00,
2013-02-18 21:34:00,24.0,-3.0,-100.00,WNW,295,4.0,10.0,29,0.00,,,-99.99,,2013-02-19 02:34:00,
2013-02-18 21:43:00,24.0,-5.0,-100.00,West,270,2.0,11.0,26,0.00,,,-99.99,,2013-02-19 02:43:00,
2013-02-18 21:53:00,25.0,-5.0,-100.00,WSW,250,4.0,12.0,26,0.00,,,-99.99,,2013-02-19 02:53:00,
2013-02-18 22:06:00,25.0,-6.0,-100.00,SW,230,2.0,11.0,25,0.00,,,-99.99,,2013-02-19 03:06:00,
2013-02-18 22:14:00,24.0,-5.0,-100.00,WSW,250,2.0,9.0,27,0.00,,,-99.99,,2013-02-19 03:14:00,
2013-02-18 22:24:00,24.0,-6.0,-100.00,SW,225,1.0,8.0,25,0.00,,,-99.99,,2013-02-19 03:24:00,
2013-02-18 22:34:00,24.0,-6.0,-100.00,West,260,2.0,8.0,25,0.00,,,-99.99,,2013-02-19 03:34:00,
2013-02-18 22:44:00,24.0,-4.0,-100.00,SE,135,1.0,7.0,28,0.00,,,-99.99,,2013-02-19 03:44:00,
2013-02-18 22:53:00,24.0,-6.0,-100.00,SE,145,1.0,4.0,26,0.00,,,-99.99,,2013-02-19 03:53:00,
2013-02-18 23:02:00,24.0,-3.0,-100.00,East,95,1.0,3.0,30,0.00,,,-99.99,,2013-02-19 04:02:00,
2013-02-18 23:14:00,23.0,-4.0,-100.00,North,-999,-999.0,-999.0,30,0.00,,,-99.99,,2013-02-19 04:14:00,
2013-02-18 23:23:00,22.0,-3.0,-100.00,SE,140,1.0,4.0,32,0.00,,,-99.99,,2013-02-19 04:23:00,
2013-02-18 23:33:00,22.0,-5.0,-100.00,SSW,200,2.0,7.0,29,0.00,,,-99.99,,2013-02-19 04:33:00,
2013-02-18 23:43:00,23.0,-6.0,-100.00,West,280,2.0,6.0,27,0.00,,,-99.99,,2013-02-19 04:43:00,
2013-02-18 23:53:00,23.0,-5.0,-100.00,West,275,3.0,7.0,28,0.00,,,-99.99,,2013-02-19 04:53:00,